Showing default

BRO-10, 58331

Orbit data source: Space-Track

BRO-10, 58331 is a payload satellite owned by Unseen Labs (FR) in SSO that was launched on Sat, 11 Nov 2023 UTC via an FALCON 9 launch vehicle from the Air Force Western Test Range (AFWTR). Payload-class satellites include a variety of spacecraft equipped with specific instruments for various scientific and technological missions. These include communications satellites like Starlink; space stations such as the ISS; scientific satellites like the Hubble; Earth observation satellites from companies like Planet Labs, Umbra, and HawkEye 360; GPS; miniature CubeSats for education and research; and military/defense satellites.

Loading next visibility...
Identifier
58331, 2023-174CD
Orbit
SSO
Country
Flag of FRFR
Related business
Manufacturer
GOMSpace
Mission
Operational Commercial Sigint
Bus & Motor
CUBESAT 6U, Unknown motor
Mass
10 kg wet, ~10 kg dry
Launch date (UTC)
2023-11-11 (2 years ago)
Launch vehicle
FALCON 9
Launch site
Air Force Western Test Range (AFWTR)
Object type
Payload
Rocket body
Debris
Shape & HBR
Box, 0.1 m
Radar Cross Section
0.080 m², Medium (>0.1 m² and < 1m²)

Expand to show TLE details & history
Last TLE update: 8 hours ago

TLE from 8 hours ago
0 BRO-10
1 58331U 23174CD  25307.81998640  .00052955  00000-0  96283-3 0  9996
2 58331  97.3956  31.3750 0006396 200.7800 159.3192 15.49345628111102
Epoch: 2025-11-03T19:40Z
TLE epoch observation values (Epoch: 2025-11-03T19:40:46.824Z)
Latitude
-0.00005°
Longitude
52.86403°
Altitude
425.838 km
Speed
7.654 km/s
True Right ascension
02h 05m 30s
True Declination
0° 00' 00"
Sunlit
Object was in full shadow at epoch
Visualization orbit readout
Latitude
Unknown
Longitude
Unknown
Altitude
Unknown
Speed
Unknown
Apparent Right ascension
Unknown
Apparent Declination
Unknown
Sunlit
N/A
Visualization observer readout
Local Sidereal Time
00:00:20
Azimuth
Unknown
Elevation
Unknown
Doppler factor
Unknown
Orbital elements
Apogee altitude
419.911 km
Perigee altitude
411.22 km
Semi-major axis
6,793.703 km
Eccentricity
0.00064
Inclination
97.3956°
RAAN
31.375°
Arg. of periapsis
200.78°
True anomaly
159.34506°
Mean anomaly
159.3192°
Eccentric anomaly
159.33213°
Mean motion
3.876 °/min
Orbital period
92.88 mins
BSTAR
0.00096283
Loading maneuver chart data...
Computing Atmospheric mass density...

Documentation

Showing up to 5 results
|